Location: *
(50.5492°N, 7.7469°E)
Time: 07:33:29
(UTC+00:00)

SKYMED 2 - Pass Details

Date: 21 October 2019
Orbit: 621 x 623 km, 97.9° (Epoch: 16 November)

Event Time Altitude Azimuth Distance (km) Brightness Sun altitude
Rises 17:36:50 0° 15° (NNE) 2,916 6.8 -12.0°
Reaches altitude 10° 17:39:02 10° 17° (NNE) 2,005 6.0 -12.3°
Maximum altitude 17:43:24 73° 103° (ESE) 656 3.5 -13.0°
Drops below altitude 10° 17:47:43 10° 188° (S) 1,988 6.3 -13.7°
Sets 17:49:54 0° 190° (S) 2,889 7.1 -14.0°
